Regional Weather Roundup
Issued by NWS Boston, MA

Current Version | Previous Version | Text Only | Print | Product List | Glossary Off
Versions: 1 2 3 4 5 6 7 8 9 10 11 12 13 14 15 16 17 18 19 20 21 22 23 24 25 26 27

000
ASUS41 KBOX 211310
RWRBOX

REGIONAL WEATHER ROUNDUP
NATIONAL WEATHER SERVICE TAUNTON MA
900 AM EDT THU SEP 21 2017

NOTE:  "FAIR" INDICATES FEW OR NO CLOUDS BELOW 12,000 FEET WITH NO
SIGNIFICANT WEATHER AND/OR OBSTRUCTIONS TO VISIBILITY.

MAZALL-211400-
EASTERN MASSACHUSETTS

CITY           SKY/WX    TMP DP  RH WIND       PRES   REMARKS
BOSTON         CLOUDY    68  60  75 N24G38    29.99R
BEVERLY        CLOUDY    68  59  73 N16G30    30.00R
LAWRENCE       CLOUDY    70  60  70 NE15      30.04R
BEDFORD        CLOUDY    69  58  67 N10       30.00R
BLUE HILL        N/A     66  58  75 N16G35    29.98R
NORWOOD        CLOUDY    71  62  73 N16G30    29.98R
MARSHFIELD     CLOUDY    66  61  82 N15G25    29.94R
PLYMOUTH       NOT AVBL
TAUNTON        CLOUDY    68  59  73 N14G30    29.93S
NEW BEDFORD    CLOUDY    66  60  81 N15G32    29.90R
$$

MAZALL-211400-
CAPE COD AND THE ISLANDS

CITY           SKY/WX    TMP DP  RH WIND       PRES   REMARKS
FALMOUTH       CLOUDY    63  61  94 N22G45    29.88R
HYANNIS        LGT RAIN  63  60  90 N24G36    29.84R FOG
CHATHAM        CLOUDY    65  63  93 N16G38    29.83R
PROVINCETOWN   CLOUDY    63  57  81 NE30G41   29.91R
NANTUCKET      CLOUDY    65  65 100 N35G47    29.75R FOG
MARTHAS VNYRD  LGT RAIN  65  62  90 N26G41    29.83R FOG
$$

MAZALL-211400-
CENTRAL AND WESTERN MASSACHUSETTS

CITY           SKY/WX    TMP DP  RH WIND       PRES   REMARKS
WORCESTER      CLOUDY    65  58  78 N16G25    30.03R
FITCHBURG      CLOUDY    70  61  73 N8        30.03S
ORANGE         CLOUDY    68  62  81 N8        30.04R
SPRINGFIELD    PTSUNNY   70  60  72 N13       30.01R
WESTFIELD      MOSUNNY   72  62  71 N15       30.02S
NORTH ADAMS    MOSUNNY   66  62  87 W5        30.08R
PITTSFIELD     MOSUNNY   70  61  73 N8        30.07R
$$

RIZALL-211400-
RHODE ISLAND

CITY           SKY/WX    TMP DP  RH WIND       PRES   REMARKS
PROVIDENCE     CLOUDY    70  63  78 N23G37    29.95R
NEWPORT        CLOUDY    68  64  87 N25G39    29.90S
BLOCK ISLAND   CLOUDY    69  63  81 N21G35    29.90R
SMITHFIELD     CLOUDY    67  62  84 N14G23    29.98R
WESTERLY       CLOUDY    72  63  73 N17G29    29.92R
$$

CTZALL-211400-
CONNECTICUT

CITY           SKY/WX    TMP DP  RH WIND       PRES   REMARKS
BRADLEY INTL   PTSUNNY   71  62  73 N15G23    30.01R
HARTFORD       PTSUNNY   72  62  71 N14G23    29.99R
BRIDGEPORT     PTSUNNY   73  62  68 N14       29.98R
DANBURY        CLOUDY    73  62  68 N14G20    30.03R
GROTON         CLOUDY    71  62  73 N20G26    29.92R
NEW HAVEN      CLOUDY    73  62  68 N16G22    29.98R
CHESTER        CLOUDY    70  63  78 N10G16    29.98R
MERIDEN        CLOUDY    72  61  68 N16G28    29.99R
WILLIMANTIC    CLOUDY    71  62  73 NE15G28   29.98R
OXFORD         PTSUNNY   70  62  76 N15G21    30.02R
$$

MEZ002-015-021-024-NHZ003-005-008-011-012-014-VTZ005-008-211400-
NORTHERN NEW ENGLAND

CITY           SKY/WX    TMP DP  RH WIND       PRES   REMARKS
PORTLAND ME    PTSUNNY   67  56  67 N18       30.05R
BANGOR ME      PTSUNNY   63  53  70 N13       30.12R
CONCORD NH     PTSUNNY   71  59  65 VRB7      30.06R
MANCHESTER NH  PTSUNNY   70  59  68 N12       30.03R
NASHUA NH      CLOUDY    68  61  78 N7        30.04R
PORTSMOUTH NH  PTSUNNY   68  57  68 N14G20    30.02R
JAFFREY NH     CLOUDY    67  61  81 VRB5      30.06S
KEENE NH       PTSUNNY   70  62  76 N9        30.07R
BURLINGTON VT  CLOUDY    62  59  90 N8        30.13R
MT. WASHINGTON NOT AVBL
$$

NYZ052-076-211400-
EASTERN NEW YORK

CITY           SKY/WX    TMP DP  RH WIND       PRES   REMARKS
ALBANY         PTSUNNY   68  63  84 N8        30.09R
NEW YORK CITY  CLOUDY    74  65  73 N13       29.99R
$$

ANZALL-211400-
MARINE OBSERVATIONS

STATION/POSITION TIME  TEMP    WIND        PRES    VSBY  WAVE
                       AIR SEA DIR/SP/G                  HT/PER
                 (UTC) (F)     (DEG/KT/KT) (MB)    (MI)  (FT/S)
BOSTON BUOY      1150   64 60   10/ 23/ 27 1013.7         10/ 7
BUZZARDS BAY     1300   67      10/ 36/ 41 1010.8R
NANTUCKET SOUND  1250   64 60   10/ 29/ 37 1008.1R         6/ 5
MASS BAY-STELLWA 1204   64 62   20/ 23/ 27 1013.9R         9/ 8
ISLE OF SHOALS   1300   64      20/ 22/ 25 1016.0R
S OF BLOCK IS    NOT AVBL
$$

......................KEY.........................
  SKY/WX - SKY CONDITION/PRESENT WEATHER
  TMP    - TEMPERATURE IN FAHRENHEIT
  DWPT   - DEWPOINT IN FAHRENHEIT
  RH     - RELATIVE HUMIDITY IN PERCENT
  WIND   - DIRECTION AND SPEED IN MPH
  PRES   - MEAN SEA LEVEL PRESSURE IN INCHES OF HG
  WCI    - WIND CHILL INDEX
  VSB    - VISIBILITY IN MILES
  HX     - HEAT INDEX
  TC     - TEMPERATURE IN CELSIUS
  VRB    - VARIABLE WIND DIRECTION
  N/A    - NOT AVAILABLE




USA.gov is the U.S. government's official web portal to all federal, state and local government web resources and services.